User: anonymous   Login
Location: McFarlands Corners
(41.4117°N, 81.3382°W)
Time: 19:09:31
(UTC+00:00)
Language:

Transit 2A Rocket - Orbit

View from above orbital plane
View from above orbital plane
View from above satellite
View from above satellite

Ground track
Ground track

The orbit is defined by the following mean orbital elements,

1 00047U          26046.17422488 +.00000000 +00000-0 +92680-4 0 00007
2 00047  66.6656  14.4793 0224388 228.8366 129.3194 14.45168527    00
Epoch (UTC): 15 February 2026 04:10:53
Eccentricity: 0.0224388
inclination: 66.6656°
perigee height: 582 km
apogee height: 901 km
right ascension of ascending node: 14.4793°
argument of perigee: 228.8366°
revolutions per day: 14.45168527
mean anomaly at epoch: 129.3194°

The dashed part of the orbit path shows where the satellite is in the earth's shadow,  

DLR